Change the Weather History Date:

Friday, November 9, 2012

  Actual Average Record
Temperature  
Mean Temperature 22 °F -  
Max Temperature 29 °F - 35 °F (2013)
Min Temperature 15 °F -2 °F -34 °F (1975)
Degree Days  
Heating Degree Days 43 62  
Month to date heating degree days 463 538  
Since 1 July heating degree days 3770 4560  
Cooling Degree Days 0    
Month to date cooling degree days 0  
Year to date cooling degree days 0  
Moisture  
Dew Point 18 °F    
Average Humidity 0    
Maximum Humidity 0    
Minimum Humidity 0    
Precipitation  
Precipitation 0.02 in 0.01 in 0.14 in (1972)
Month to date precipitation 0.41 0.08  
Year to date precipitation 6.13 4.26  
Snow  
Snow 0.20 in 0.20 in 1.50 in (1972)
Month to date snowfall 9.9 2.1  
Since 1 July snowfall 28.7 16.7  
Since 1 September snowfall 28.5 15.6  
Snow Depth 6.00 in    
Sea Level Pressure  
Sea Level Pressure 30.09 in    
Wind  
Wind Speed 13 mph (NW)    
Max Wind Speed 21 mph    
Max Gust Speed 24 mph    
Visibility 7 miles    
Events Snow    
T = Trace of Precipitation, MM = Missing Value Source: NWS Daily Summary

Daily Weather History Graph

Daily Weather History Graph

Search for Another Location

Airport or City:

Trip Planner

Search our weather history database for the weather conditions in past years. The results will help you decide how hot, cold, wet, or windy it might be!

Date:

Astronomy

Nov. 09, 2012 Rise Set
Actual Time 11:09 AM AKST 3:11 PM AKST
Civil Twilight 9:29 AM AKST 4:51 PM AKST
Nautical Twilight 8:04 AM AKST 6:16 PM AKST
Astronomical Twilight 6:48 AM AKST 7:32 PM AKST
Moon 3:14 AM AKST (11/9) 3:16 PM AKST (11/9)
Length of Visible Light 7h 21m
Length of Day
4h 01m
Waning Crescent, 22% of the Moon is Illuminated
Nov 9
Waning Crescent
Nov 13
New
Nov 20
First Quarter
Nov 28
Full
Dec 6
Last Quarter

Hourly Weather History & Observations

Time (AKST) Temp. Windchill Dew Point Humidity Pressure Visibility Wind Dir Wind Speed Gust Speed Precip Events Conditions
12:24 AM 28.4 °F 18.5 °F 24.8 °F 86% 30.18 in 10.0 mi WSW 11.5 mph - 0.00 in   Overcast
12:53 AM 28.0 °F 17.5 °F 26.1 °F 92% 30.19 in 10.0 mi WSW 12.7 mph - 0.00 in   Overcast
1:06 AM 28.4 °F 18.0 °F 26.6 °F 93% 30.18 in 6.0 mi West 12.7 mph - 0.00 in Snow Light Snow
1:22 AM 28.4 °F 17.5 °F 26.6 °F 93% 30.18 in 2.0 mi West 13.8 mph - 0.00 in Snow Light Snow
1:33 AM 28.4 °F 18.0 °F 26.6 °F 93% 30.18 in 3.0 mi West 12.7 mph - 0.00 in Snow Light Snow
1:53 AM 28.9 °F 19.8 °F 26.1 °F 89% 30.18 in 2.5 mi West 10.4 mph - 0.00 in Snow Light Snow
2:00 AM 28.4 °F 18.5 °F 26.6 °F 93% 30.17 in 3.0 mi West 11.5 mph - 0.00 in Snow Light Snow
2:33 AM 28.4 °F 19.1 °F 26.6 °F 93% 30.16 in 6.0 mi West 10.4 mph - 0.01 in   Overcast
2:43 AM 28.4 °F 18.5 °F 26.6 °F 93% 30.16 in 2.0 mi West 11.5 mph - 0.01 in Snow Light Snow
2:53 AM 28.4 °F 19.7 °F 26.6 °F 93% 30.16 in 2.0 mi West 9.2 mph - N/A   Overcast
3:06 AM 28.4 °F 19.7 °F 26.6 °F 93% 30.15 in 7.0 mi West 9.2 mph - N/A   Overcast
3:53 AM 28.9 °F 20.4 °F 26.1 °F 89% 30.15 in 6.0 mi WNW 9.2 mph - 0.00 in Snow Light Snow
4:01 AM 28.4 °F 18.5 °F 26.6 °F 93% 30.14 in 1.8 mi WNW 11.5 mph - 0.00 in Snow Light Snow
4:23 AM 28.4 °F 21.2 °F 26.6 °F 93% 30.14 in 3.0 mi North 6.9 mph - 0.01 in Snow Light Snow
4:53 AM 27.0 °F 18.0 °F 25.0 °F 92% 30.14 in 4.0 mi North 9.2 mph - 0.01 in Snow Light Snow
5:04 AM 26.6 °F 17.5 °F 24.8 °F 93% 30.13 in 2.0 mi NNE 9.2 mph - 0.00 in Snow Light Snow
5:41 AM 26.6 °F 19.1 °F 23.0 °F 86% 30.12 in 5.0 mi NNE 6.9 mph - 0.00 in Snow Light Snow
5:48 AM 26.6 °F 19.1 °F 23.0 °F 86% 30.12 in 6.0 mi North 6.9 mph - 0.00 in   Overcast
5:53 AM 26.1 °F 17.6 °F 23.0 °F 88% 30.13 in 5.0 mi North 8.1 mph - 0.00 in   Overcast
6:53 AM 24.1 °F 14.4 °F 21.9 °F 91% 30.12 in 10.0 mi NNE 9.2 mph - N/A   Overcast
7:53 AM 23.0 °F 13.1 °F 19.0 °F 85% 30.12 in 10.0 mi North 9.2 mph - N/A   Overcast
8:14 AM 21.2 °F 11.7 °F 17.6 °F 86% 30.12 in 10.0 mi North 8.1 mph - N/A   Overcast
8:53 AM 21.0 °F 11.4 °F 14.0 °F 74% 30.11 in 10.0 mi North 8.1 mph - N/A   Overcast
9:34 AM 19.4 °F 9.5 °F 10.4 °F 68% 30.10 in 10.0 mi North 8.1 mph - N/A   Overcast
9:53 AM 19.9 °F 10.1 °F 10.0 °F 65% 30.10 in 10.0 mi NNW 8.1 mph - N/A   Overcast
10:53 AM 19.0 °F 8.2 °F 9.0 °F 65% 30.09 in 10.0 mi NNW 9.2 mph - N/A   Mostly Cloudy
11:53 AM 17.1 °F 5.0 °F 9.0 °F 71% 30.08 in 10.0 mi NW 10.4 mph - N/A   Scattered Clouds
12:53 PM 16.0 °F 2.9 °F 8.1 °F 71% 30.06 in 10.0 mi WNW 11.5 mph - N/A   Scattered Clouds
1:53 PM 15.1 °F -0.1 °F 8.1 °F 74% 30.04 in 10.0 mi WNW 15.0 mph - N/A   Scattered Clouds
2:53 PM 15.1 °F -0.6 °F 9.0 °F 77% 30.03 in 10.0 mi WNW 16.1 mph - N/A   Mostly Cloudy
3:53 PM 15.1 °F -1.6 °F 9.0 °F 77% 30.01 in 10.0 mi WNW 18.4 mph - N/A   Mostly Cloudy
4:00 PM 15.8 °F 0.3 °F 8.6 °F 73% 30.00 in 10.0 mi WNW 16.1 mph - N/A   Mostly Cloudy
4:53 PM 15.1 °F -2.0 °F 10.0 °F 80% 29.99 in 6.0 mi WNW 19.6 mph - 0.00 in Snow Light Snow
5:53 PM 15.1 °F -0.1 °F 10.0 °F 80% 29.98 in 10.0 mi WNW 15.0 mph - 0.00 in   Overcast
6:53 PM 15.1 °F -0.6 °F 10.0 °F 80% 29.97 in 9.0 mi WNW 16.1 mph - 0.00 in Snow Light Snow
7:53 PM 15.1 °F -1.1 °F 10.9 °F 84% 29.96 in 9.0 mi WNW 17.3 mph - 0.00 in Snow Light Snow
8:53 PM 16.0 °F 0.1 °F 12.0 °F 84% 29.95 in 9.0 mi NW 17.3 mph - 0.00 in Snow Light Snow
9:29 PM 15.8 °F 0.3 °F 12.2 °F 86% 29.94 in 9.0 mi WNW 16.1 mph - 0.00 in Snow Light Snow
9:53 PM 17.1 °F 2.5 °F 12.9 °F 84% 29.93 in 9.0 mi West 15.0 mph - 0.00 in Snow Light Snow
10:53 PM 17.1 °F 1.0 °F 14.0 °F 88% 29.93 in 10.0 mi WNW 18.4 mph - 0.00 in   Overcast
11:53 PM 18.0 °F 2.2 °F 15.1 °F 88% 29.92 in 10.0 mi WNW 18.4 mph - N/A   Overcast